Location: Winthrop
(48.4780°N, 120.1850°W)
Time: 06:46:12
(UTC-08:00)

Tiros 1 despin weight - All Passes

Search period start: 27 January 2023 00:00
Search period end: 06 February 2023 00:00
Orbit: 589 x 636 km, 48.2° (Epoch: 27 January)

Date Brightness Start Highest point End Pass type
(mag) Time Alt. Az. Time Alt. Az. Time Alt. Az.
27 Jan - 01:05:21 10° W 01:08:42 21° SW 01:12:02 10° SSE night (unlit)
27 Jan - 18:34:52 10° SSW 18:38:46 29° SSE 18:42:38 10° E visible
27 Jan - 20:15:21 10° WSW 20:19:50 73° SSE 20:24:15 10° E visible
27 Jan - 21:56:47 10° W 22:01:15 85° S 22:05:40 10° E night (unlit)
27 Jan - 23:38:17 10° W 23:42:30 44° SSW 23:46:40 10° SE night (unlit)
28 Jan - 01:21:10 10° WSW 01:23:07 13° SW 01:25:04 10° SSW night (unlit)
28 Jan - 17:10:42 10° SSE 17:12:43 13° SE 17:14:44 10° ESE daylight
28 Jan - 18:49:05 10° SW 18:53:21 43° SSE 18:57:36 10° E visible
28 Jan - 20:30:07 10° W 20:34:36 85° S 20:39:03 10° E visible
28 Jan - 22:11:35 10° W 22:16:02 74° SSW 22:20:26 10° ESE night (unlit)
28 Jan - 23:53:15 10° W 23:57:05 29° SSW 00:00:54 10° SSE night (unlit)
29 Jan - 17:23:41 10° SSW 17:27:08 21° SE 17:30:33 10° E visible
29 Jan - 19:03:34 10° WSW 19:08:02 61° SSE 19:12:26 10° E visible
29 Jan - 20:44:55 10° W 20:49:25 88° S 20:53:51 10° E visible
29 Jan - 22:26:24 10° W 22:30:45 56° SSW 22:35:03 10° ESE night (unlit)
30 Jan - 00:08:30 10° W 00:11:34 19° SW 00:14:36 10° S night (unlit)
30 Jan - 17:37:33 10° SSW 17:41:38 33° SSE 17:45:41 10° E visible
30 Jan - 19:18:15 10° WSW 19:22:46 77° SSE 19:27:13 10° E visible
30 Jan - 20:59:42 10° W 21:04:12 83° S 21:08:38 10° ESE visible
30 Jan - 22:41:15 10° W 22:45:24 39° SSW 22:49:30 10° SE night (unlit)
31 Jan - 00:24:58 10° WSW 00:25:55 11° SW 00:26:52 10° SSW night (unlit)
31 Jan - 16:12:51 10° S 16:15:31 15° SE 16:18:09 10° ESE daylight
31 Jan - 17:51:52 10° SW 17:56:15 49° SSE 18:00:34 10° E visible
31 Jan - 19:33:00 10° W 19:37:32 87° S 19:42:00 10° E visible
31 Jan - 21:14:29 10° W 21:18:57 69° SSW 21:23:21 10° ESE visible
31 Jan - 22:56:15 10° W 22:59:56 26° SW 23:03:34 10° SSE night (unlit)
01 Feb - 16:26:13 10° SSW 16:29:56 25° SE 16:33:37 10° E daylight
01 Feb - 18:06:24 10° WSW 18:10:55 67° SSE 18:15:22 10° E visible
01 Feb - 19:47:48 10° W 19:52:19 87° S 19:56:47 10° E visible
01 Feb - 21:29:18 10° W 21:33:38 51° SSW 21:37:55 10° SE visible
01 Feb - 23:11:39 10° W 23:14:21 16° SW 23:17:03 10° S night (unlit)
02 Feb - 15:03:14 10° SE 15:03:55 10° SE 15:04:35 10° SE daylight
02 Feb - 16:40:14 10° SW 16:44:28 38° SSE 16:48:38 10° E daylight
02 Feb - 18:21:06 10° WSW 18:25:39 81° SSE 18:30:08 10° E visible
02 Feb - 20:02:34 10° W 20:07:05 79° SSW 20:11:32 10° ESE visible
02 Feb - 21:44:10 10° W 21:48:14 35° SSW 21:52:14 10° SE visible
03 Feb - 15:15:08 10° S 15:18:15 18° SE 15:21:21 10° E daylight
03 Feb - 16:54:36 10° SW 16:59:04 54° SSE 17:03:28 10° E daylight
03 Feb - 18:35:51 10° W 18:40:25 88° S 18:44:54 10° E visible
03 Feb - 20:17:20 10° W 20:21:49 64° SSW 20:26:12 10° ESE visible
03 Feb - 21:59:13 10° W 22:02:43 23° SW 22:06:10 10° SSE night (unlit)
04 Feb - 15:28:45 10° SSW 15:32:41 29° SSE 15:36:35 10° E daylight
04 Feb - 17:09:11 10° WSW 17:13:44 72° SSE 17:18:15 10° E daylight
04 Feb - 18:50:37 10° W 18:55:11 86° S 18:59:40 10° E visible
04 Feb - 20:32:08 10° W 20:36:26 46° SSW 20:40:41 10° SE visible
04 Feb - 22:14:51 10° WSW 22:17:05 14° SW 22:19:17 10° SSW night (unlit)
05 Feb - 14:04:38 10° SSE 14:06:36 13° SE 14:08:32 10° ESE daylight
05 Feb - 15:42:53 10° SW 15:47:14 43° SSE 15:51:31 10° E daylight
05 Feb - 17:23:53 10° W 17:28:28 84° S 17:32:59 10° E daylight
05 Feb - 19:05:23 10° W 19:09:55 75° SSW 19:14:22 10° ESE visible
05 Feb - 20:47:02 10° W 20:50:59 31° SSW 20:54:53 10° SSE visible
